Wind_Speed
21 21 20 21 20 20 19 18 17 17 17 16 16 15 12 11 11 11 10 9 9 9 9 8 8 7 7 6 6 7 8 9 10 12 13 8 8 11 9 8 10 8 6 9 8 7 7 6 6 4 3 5 4 3 2 2 3 3 3 2 5 5 6 6 7 7 5 6 6 7 5 3 5 4 3 3 1 2 3 1 1 1 2 4 4 6 11 14
22 21 21 20 20 20 20 19 17 17 17 16 16 15 13 11 11 11 11 10 8 9 9 8 8 7 7 7 6 6 7 8 10 12 11 7 8 10 9 9 10 10 8 9 7 7 7 7 6 3 4 5 2 2 2 1 3 2 2 3 5 6 5 4 6 6 6 7 8 8 5 4 6 4 2 1 3 3 3 2 2 2 2 3 5 8 11 14
22 21 21 20 20 20 20 19 17 17 17 16 16 14 12 11 11 10 10 10 9 9 9 8 8 7 7 6 6 5 5 6 8 9 9 9 9 9 10 9 10 11 8 6 6 7 6 6 5 3 6 5 2 2 2 1 1 1 2 3 6 5 5 4 5 6 8 9 10 9 7 6 6 4 3 3 3 3 2 2 1 1 2 2 5 8 11 14
22 22 21 20 20 20 19 19 18 17 17 16 15 14 12 11 11 10 10 10 9 9 8 8 7 7 6 6 5 3 3 5 4 5 7 10 9 9 10 10 11 12 9 7 8 9 7 5 4 4 6 4 2 1 1 2 1 1 2 4 6 3 5 6 4 7 10 9 8 10 9 8 7 4 5 5 3 4 6 5 2 0 2 3 6 8 11 13
22 22 21 20 20 20 19 19 18 17 16 16 15 13 12 11 10 10 10 10 9 9 8 8 7 6 6 5 4 2 2 3 4 5 6 8 7 9 11 11 13 13 12 11 11 10 7 4 4 4 5 3 4 2 4 5 3 0 4 5 4 2 5 6 6 11 11 8 7 8 8 8 7 6 7 6 6 6 9 7 2 1 2 3 6 7 8 11
22 22 21 21 20 20 19 19 18 17 16 16 15 13 12 11 10 10 10 10 9 9 8 8 7 6 5 5 4 3 4 1 5 4 4 5 7 10 12 13 14 14 13 12 10 9 7 5 5 4 4 3 7 6 6 6 3 1 6 7 5 5 7 8 10 13 9 8 8 7 8 8 8 8 8 9 9 9 11 8 4 4 4 4 5 5 6 8
23 22 22 21 20 20 19 19 18 17 16 16 15 13 12 11 10 10 10 10 9 9 8 7 7 5 5 5 4 4 5 2 2 4 4 4 8 11 12 14 15 14 14 13 11 9 7 6 5 3 4 2 6 7 6 4 2 3 5 8 8 9 10 10 14 14 9 9 9 8 9 8 8 8 9 11 12 11 11 10 8 7 7 6 6 5 5 6
23 23 22 21 20 20 19 19 18 17 16 15 14 13 13 11 11 10 9 10 9 8 8 7 6 5 5 4 3 4 6 3 3 6 4 3 8 12 13 14 15 15 14 13 11 9 8 6 4 4 3 4 6 6 5 2 2 5 5 7 8 11 11 11 15 16 14 12 11 11 11 10 10 10 12 12 11 11 11 11 10 8 8 7 6 4 4 4
24 23 23 21 20 19 19 19 18 17 16 15 13 12 12 11 10 9 9 9 8 8 8 7 5 4 4 3 4 5 6 6 6 7 5 4 6 11 13 14 15 15 13 12 10 9 8 6 2 3 4 4 5 5 6 4 4 6 5 8 9 13 12 13 15 15 14 12 11 12 10 10 8 7 11 11 10 10 10 11 10 8 7 6 5 4 4 2
25 24 23 22 20 19 18 18 17 17 16 14 13 12 11 10 8 8 8 7 7 7 7 7 5 5 4 3 5 5 7 8 7 6 5 5 6 9 14 14 14 14 12 11 11 9 6 3 2 1 3 2 4 4 6 6 5 4 6 10 11 13 12 12 14 14 12 10 10 12 11 10 6 3 7 9 9 8 9 10 9 7 7 5 4 5 3 1
26 25 24 22 20 19 18 18 16 16 15 13 13 11 10 9 7 6 6 6 6 7 7 6 5 5 4 4 7 4 8 9 7 7 5 6 7 8 12 12 12 13 11 10 11 9 5 2 3 2 2 1 4 3 5 4 3 5 8 10 11 11 11 11 13 13 11 9 9 10 12 12 9 7 6 7 7 7 8 8 8 7 5 4 4 4 2 3
26 26 25 23 21 18 18 17 15 15 13 12 12 11 9 8 6 5 5 5 5 6 6 5 5 5 4 5 9 5 8 10 8 7 5 6 9 9 9 10 10 11 8 8 9 8 5 3 3 4 1 3 6 2 4 2 1 4 5 5 9 9 8 9 9 9 8 7 5 3 6 8 9 8 6 5 6 6 6 7 6 6 5 4 4 3 2 2
27 27 25 23 21 18 17 16 14 13 11 10 12 10 8 7 4 2 2 3 4 4 5 4 4 5 4 5 9 9 9 10 9 7 5 6 9 11 10 10 12 12 9 6 6 7 5 4 3 3 3 5 5 3 2 1 3 5 3 3 5 4 4 7 7 7 8 6 1 3 0 5 7 8 6 4 4 4 5 5 5 5 5 4 4 3 2 2
28 27 26 24 21 18 16 15 13 11 9 9 10 9 7 5 2 1 2 3 4 4 3 4 3 4 5 5 7 11 10 10 10 8 6 8 10 11 11 12 13 12 12 9 6 7 5 4 3 4 4 4 3 2 4 4 4 4 4 4 4 3 5 9 8 8 7 3 4 5 1 4 6 8 6 4 4 4 4 5 5 5 5 5 5 4 3 3
29 28 26 24 21 18 16 14 12 9 8 8 8 8 7 4 1 2 4 4 4 4 4 4 4 4 5 6 6 11 12 10 9 8 7 9 10 10 11 11 10 9 9 8 7 7 5 4 4 6 4 3 4 6 6 5 4 4 4 4 4 2 5 8 8 7 5 4 4 5 0 5 6 7 6 4 4 4 4 5 5 5 6 6 6 5 5 5
29 28 26 24 20 17 15 13 10 8 6 7 7 7 6 4 1 1 3 4 4 4 4 4 5 4 4 4 5 9 12 10 8 8 8 11 10 8 10 9 7 7 7 7 8 7 4 3 4 5 5 5 6 6 5 5 5 5 5 2 2 1 4 6 6 5 4 5 2 3 1 5 5 6 6 5 5 4 4 6 6 6 7 7 7 6 6 6
29 28 27 24 20 17 14 12 9 6 5 6 7 5 5 4 1 2 3 4 4 4 4 3 4 4 5 3 5 9 11 10 9 9 9 12 11 8 9 8 6 6 6 6 7 6 5 5 4 4 6 6 5 4 6 7 5 5 4 2 2 1 3 4 7 6 5 5 3 3 5 6 6 6 6 6 4 4 5 6 6 6 7 7 7 8 7 6
29 28 26 23 19 16 14 11 8 5 3 5 5 4 4 4 0 2 3 4 3 4 4 4 5 3 5 7 6 8 11 11 11 10 10 13 12 9 8 7 6 6 7 7 7 7 7 6 5 5 6 5 5 6 7 3 1 2 2 2 2 2 2 3 7 7 7 6 5 6 7 7 6 6 6 6 5 5 5 5 6 6 7 8 8 8 8 8
30 28 26 22 18 15 13 10 7 4 2 3 4 3 3 3 1 3 3 5 5 4 1 6 10 2 1 9 7 7 11 13 13 10 10 12 12 10 7 6 7 8 10 9 9 9 7 6 6 6 7 7 5 7 7 4 4 4 4 5 4 1 3 6 8 9 9 8 6 6 7 8 7 6 6 7 6 6 6 5 6 6 7 7 8 8 8 9
30 28 25 21 17 15 12 9 6 3 3 2 2 2 2 2 2 4 4 8 9 8 4 4 11 5 2 8 7 7 11 13 12 10 10 12 12 10 7 7 8 9 10 8 7 8 6 7 8 8 7 5 3 5 7 5 4 6 6 5 4 2 4 9 10 10 8 6 6 7 8 9 8 7 6 7 7 8 7 7 7 7 8 8 8 8 8 9
30 28 25 20 17 14 11 8 6 4 5 3 1 1 2 4 3 1 2 7 7 8 8 6 9 9 4 6 5 7 11 12 11 10 12 12 11 11 9 9 9 9 8 5 4 5 5 8 9 9 7 4 2 3 5 5 5 7 7 5 3 0 5 9 10 8 5 4 6 7 9 9 8 7 6 6 7 8 8 8 8 8 8 8 8 8 8 8
30 27 24 19 16 14 11 8 6 6 7 5 3 2 3 4 4 4 5 6 4 6 9 8 10 10 7 7 6 7 10 12 13 12 13 14 12 11 10 10 10 7 7 6 4 5 7 10 9 7 4 3 3 4 6 7 7 7 6 5 3 4 8 8 8 7 6 4 6 8 8 8 7 7 6 6 6 8 8 8 8 8 8 9 8 7 7 7
29 26 22 19 15 13 10 7 6 7 9 8 5 3 3 3 3 5 5 6 4 5 7 9 11 10 9 9 7 9 11 13 14 14 15 15 14 11 9 11 10 6 8 9 8 7 6 6 5 3 2 5 5 5 7 7 7 7 6 5 2 8 7 5 7 9 7 6 7 8 7 6 6 6 6 6 6 7 7 8 9 9 9 9 9 7 7 7
29 26 21 18 15 12 10 7 7 9 11 9 7 4 3 3 4 5 4 6 3 4 5 8 9 8 9 8 7 12 12 11 13 14 16 16 13 10 8 10 9 6 8 9 10 9 5 2 4 2 4 6 7 7 8 7 7 7 8 7 2 8 6 4 10 10 7 7 9 8 5 4 4 4 5 5 5 6 7 8 10 10 10 10 9 9 8 8
28 25 20 16 14 11 9 7 7 9 11 10 8 5 3 3 3 4 4 6 3 4 4 8 9 8 9 8 9 12 10 10 11 12 17 16 12 9 6 6 7 8 8 8 8 9 6 2 3 4 6 6 6 7 8 7 7 5 7 7 3 7 6 10 15 11 7 6 9 8 3 3 5 3 4 4 5 5 6 7 9 10 10 9 10 10 9 10
28 23 19 15 12 9 7 5 7 9 12 12 9 6 4 3 3 2 4 5 4 5 5 8 8 8 9 9 11 10 8 10 10 11 15 15 11 8 6 6 5 6 5 6 5 6 4 2 3 7 6 6 7 7 6 5 8 4 3 3 4 7 10 14 16 10 4 4 8 9 5 1 4 5 5 4 5 6 6 7 8 9 9 9 9 10 9 10
27 22 17 14 11 8 6 4 6 8 11 12 11 7 4 3 3 2 4 5 4 4 5 6 5 8 8 9 14 10 5 11 12 11 14 14 12 8 7 7 6 4 2 4 5 4 6 6 6 7 6 7 7 5 4 7 8 1 4 3 7 10 11 14 13 7 2 5 7 8 6 3 3 5 7 5 5 6 6 7 8 8 9 9 9 9 10 10
26 20 16 13 9 8 7 7 7 9 10 11 11 9 4 3 3 3 5 3 4 3 5 5 4 7 7 8 13 6 4 13 12 10 14 13 12 10 10 8 7 6 6 7 5 5 6 8 8 7 6 6 3 3 3 7 4 4 5 5 8 9 10 11 8 4 3 4 4 7 6 5 2 7 8 7 6 6 6 6 7 8 9 9 8 8 9 9
24 19 14 11 8 6 7 8 8 10 11 10 10 8 3 3 2 4 6 1 3 3 5 6 6 8 8 9 11 5 4 9 5 9 16 14 11 9 7 6 7 6 7 10 7 2 3 4 2 3 5 2 3 4 3 5 1 6 8 8 8 7 8 7 5 2 4 5 4 7 8 5 1 6 7 6 6 6 6 6 7 9 9 9 8 8 8 8
21 17 12 8 6 6 7 8 9 11 12 12 10 5 2 3 4 6 4 2 3 4 5 6 6 9 11 10 10 8 6 5 4 12 15 12 13 10 4 3 6 7 6 10 10 7 4 3 2 5 5 1 5 4 3 3 7 12 10 9 8 7 5 4 3 2 4 5 3 6 7 4 1 4 6 5 5 6 7 7 8 10 10 9 8 8 8 7
19 14 9 6 5 5 5 7 10 11 13 13 9 5 3 4 5 6 2 3 3 5 6 7 7 9 12 11 8 9 7 5 9 13 12 9 12 11 6 5 6 7 7 8 9 11 11 8 4 4 5 5 6 6 5 8 13 12 8 8 7 5 5 4 3 3 5 3 3 5 6 5 3 2 5 6 5 6 7 7 9 10 10 9 7 7 7 7
15 11 6 4 4 4 5 7 10 12 14 13 10 7 5 5 5 2 4 4 3 5 6 7 9 9 11 11 8 9 9 6 10 12 10 10 9 9 9 8 7 8 7 7 9 9 10 8 6 7 8 9 7 6 6 8 10 8 6 8 6 4 5 4 4 4 4 1 4 4 4 5 2 2 6 8 7 7 6 7 10 11 10 9 7 6 6 6
11 6 3 3 3 4 6 7 10 13 14 13 10 8 6 5 3 2 3 4 2 3 3 4 9 10 10 10 8 9 8 6 9 11 10 11 9 9 12 9 7 7 6 8 10 9 8 6 8 8 8 11 10 5 5 6 7 8 7 7 6 4 4 5 3 3 3 3 5 3 3 4 1 4 7 9 8 8 8 9 10 11 10 8 7 6 6 7
7 3 2 2 3 4 5 7 12 15 15 13 9 7 6 4 2 2 2 3 4 4 3 4 9 10 9 9 8 10 8 5 9 10 9 10 8 9 12 10 9 8 5 7 8 8 8 6 9 8 6 12 13 7 5 5 6 7 6 7 7 4 5 5 3 4 2 3 5 4 3 2 2 4 6 8 9 9 10 10 10 10 9 7 7 6 6 7
4 2 2 1 2 3 6 9 12 15 16 12 8 6 5 2 4 2 1 4 4 5 5 5 8 11 10 7 8 11 8 4 10 10 8 10 8 8 10 10 12 10 6 6 5 6 9 4 7 3 3 11 12 5 4 5 5 6 6 7 6 3 3 3 2 3 2 1 4 4 2 1 3 5 7 8 10 11 10 11 11 9 8 7 6 5 5 6
2 1 2 1 2 5 9 11 12 14 15 10 7 5 3 0 2 0 1 2 1 3 4 7 8 9 9 7 8 12 7 4 10 10 7 9 9 9 10 9 12 13 9 6 5 5 8 3 9 5 4 8 8 5 7 7 4 5 6 6 1 2 4 4 1 0 3 5 2 2 3 4 5 5 8 9 10 11 11 11 11 10 9 7 6 5 5 5
1 1 2 2 5 8 11 12 11 12 12 9 7 3 1 1 1 2 1 1 2 1 5 7 8 8 9 8 9 12 10 6 9 9 7 8 8 10 11 9 11 14 13 10 4 3 6 3 8 6 7 7 4 4 7 8 5 3 5 5 4 1 3 4 3 2 4 6 2 3 4 4 4 4 9 12 12 11 11 11 12 11 9 7 6 6 5 5
3 5 3 2 7 10 11 11 9 9 9 7 6 4 3 1 1 2 3 4 4 5 7 6 6 7 9 9 9 12 11 8 9 8 7 7 7 10 12 10 10 14 15 13 6 1 4 4 6 5 5 7 6 6 6 7 7 6 2 5 4 4 4 3 4 4 5 6 2 3 4 5 5 4 10 15 14 13 12 11 11 11 10 8 7 7 6 5
6 5 2 3 8 10 10 9 6 7 8 6 5 4 3 3 3 4 5 6 6 5 7 7 5 6 8 8 9 11 11 8 9 8 7 6 7 10 13 10 11 14 15 13 8 1 3 4 4 6 5 6 7 7 6 7 7 6 4 4 3 5 3 2 3 3 5 5 3 2 4 4 2 3 11 15 14 14 13 11 10 11 11 9 8 8 7 6
6 2 2 4 9 10 8 6 4 6 7 4 4 2 1 4 5 5 5 5 7 6 6 7 7 7 8 8 8 9 9 8 7 6 6 8 7 8 12 10 9 11 12 11 8 3 2 4 4 6 6 5 6 4 4 5 6 6 6 5 4 2 1 2 2 2 5 6 3 4 4 2 4 2 7 13 13 12 12 11 10 11 11 10 8 8 6 5
7 3 3 6 10 10 6 5 5 5 5 3 4 3 2 5 6 7 5 4 7 7 6 6 6 8 8 8 8 8 8 7 8 6 5 9 8 6 9 10 9 9 9 9 8 6 4 4 6 6 6 6 3 2 4 4 3 5 6 4 4 3 3 4 4 3 3 5 4 6 5 2 5 2 3 9 11 11 13 13 11 12 12 9 8 8 7 5
6 2 5 8 9 8 6 6 3 3 4 3 2 4 4 4 6 7 4 2 6 6 5 5 6 7 8 8 7 8 8 7 8 8 5 7 9 5 6 9 10 10 9 8 7 6 2 3 6 6 5 4 2 3 2 3 3 6 5 2 3 4 4 5 4 1 2 2 2 5 5 2 5 2 3 7 10 12 14 14 12 12 11 10 9 8 7 6
3 2 6 9 7 5 5 5 3 3 4 2 4 5 5 4 6 5 3 1 4 4 5 6 5 6 7 7 6 8 10 7 7 8 6 6 6 4 8 9 8 10 10 7 6 6 2 3 5 3 2 3 3 3 2 0 4 6 3 1 4 3 2 5 4 2 3 2 1 5 4 2 5 3 3 7 11 13 13 13 12 11 11 10 10 9 8 7
3 2 5 6 4 1 4 4 2 3 2 2 4 4 4 4 5 5 4 2 1 4 5 4 4 4 4 5 6 8 9 7 7 7 5 5 4 6 6 8 8 11 10 4 5 9 5 4 5 3 5 7 7 6 5 4 5 5 1 1 3 2 2 2 1 2 4 1 2 7 3 4 5 5 6 7 11 13 12 13 12 11 10 10 10 10 8 7
3 1 4 4 1 3 4 3 3 3 3 4 4 2 2 3 1 4 4 4 3 1 2 2 2 2 3 5 5 6 7 4 4 6 4 4 6 5 2 8 10 11 7 2 5 10 6 5 7 6 7 6 5 4 3 4 5 3 2 4 4 4 3 2 1 4 4 2 2 6 2 6 6 6 8 9 9 11 12 12 12 11 10 10 10 10 9 7
4 1 2 4 2 4 4 1 4 4 4 4 3 2 1 3 4 1 2 4 6 5 4 3 3 3 4 6 6 6 7 3 2 5 4 4 6 3 1 8 10 7 3 3 8 10 6 5 6 4 2 1 3 5 4 6 7 6 6 7 6 4 2 3 5 4 1 2 3 2 3 5 8 8 9 10 10 10 11 12 12 11 10 10 9 9 8 7
4 1 3 1 1 3 3 2 3 4 4 4 2 3 3 1 4 3 2 3 4 4 4 6 3 3 3 4 5 5 6 5 3 4 3 2 4 5 5 8 8 5 6 7 8 7 5 6 5 2 1 4 4 4 4 7 9 7 7 8 7 5 4 5 5 2 2 2 2 5 4 4 8 10 10 10 10 9 10 12 12 11 10 10 10 9 8 7
5 2 3 4 3 2 1 2 6 6 4 3 3 3 3 2 3 4 5 4 4 3 3 6 9 8 8 4 2 3 4 5 6 4 3 3 4 7 8 7 7 8 9 8 6 4 5 5 5 4 2 4 3 2 3 5 5 5 7 7 6 6 6 5 4 0 1 5 1 8 7 3 6 10 10 10 10 9 10 12 12 11 11 11 10 10 9 8
8 4 3 5 4 4 6 7 8 6 3 2 2 3 4 5 6 6 4 3 6 7 5 7 12 13 13 10 6 6 6 3 5 5 3 2 2 4 6 6 7 8 8 8 6 2 4 2 4 5 4 4 3 2 2 4 4 4 5 5 5 6 4 3 2 2 1 3 1 8 8 3 4 6 8 10 10 10 10 10 11 11 11 11 10 9 8 7
9 5 6 7 6 5 7 7 6 4 2 1 1 3 4 6 8 7 6 5 6 7 7 8 11 13 15 14 11 9 9 8 5 6 6 3 1 1 2 3 3 6 7 6 5 3 3 1 3 5 5 3 4 2 3 4 5 4 5 5 5 5 4 4 4 4 3 2 3 6 7 5 3 4 8 11 10 10 10 11 11 11 11 11 9 8 7 7
13 7 7 6 4 5 6 4 4 4 1 1 2 4 4 5 7 5 5 8 7 6 5 5 5 6 11 15 14 12 10 8 7 7 8 6 4 3 2 3 2 2 5 4 3 4 4 2 3 5 5 2 3 1 4 4 5 6 7 7 8 7 4 4 4 4 3 3 5 6 5 4 5 6 9 10 11 11 12 12 11 10 10 10 9 8 7 6
18 10 7 4 3 4 5 3 3 3 1 3 5 6 5 4 5 3 2 6 7 7 5 4 4 1 6 12 13 10 9 7 6 6 6 6 5 4 2 2 2 2 2 3 2 2 3 4 5 4 5 2 2 2 3 4 7 7 4 4 6 5 3 3 4 4 3 3 4 4 0 4 9 9 9 10 11 12 12 12 11 10 10 9 8 7 6 5
Wind_Direction
350 349 348 347 345 343 342 340 338 338 338 337 336 333 326 320 312 299 294 294 296 295 291 287 282 281 286 290 282 267 259 257 258 255 249 240 230 225 215 205 204 200 191 192 190 195 201 193 217 259 228 231 250 253 258 240 256 262 272 29 52 43 44 20 28 54 83 102 109 126 134 98 108 117 137 148 85 128 151 135 75 97 36 25 60 107 132 143
347 347 346 344 342 341 339 338 337 336 335 335 334 331 325 319 312 299 290 287 288 288 288 287 281 278 283 288 288 276 266 262 260 255 246 227 220 216 204 196 195 195 196 201 200 192 186 189 223 259 226 240 262 262 282 209 242 280 335 44 55 40 47 25 35 55 74 104 119 120 111 83 95 92 101 97 70 129 173 143 148 148 80 62 104 129 143 149
346 345 344 342 340 339 337 336 335 334 334 333 333 329 323 317 310 301 290 283 280 282 284 284 282 277 280 288 291 283 277 275 269 260 244 226 218 205 194 190 187 192 196 199 193 188 192 201 222 244 247 264 6 295 281 153 237 335 338 46 64 48 63 62 42 57 81 109 124 118 108 97 95 76 54 22 47 97 52 57 132 168 121 120 137 145 155 159
344 343 342 340 338 337 336 335 333 333 332 332 332 326 320 315 307 300 291 283 275 275 279 281 281 275 277 286 287 289 295 277 244 230 229 222 217 194 183 180 180 185 182 182 189 198 208 207 214 244 264 284 38 294 2 43 304 42 338 31 59 47 77 80 65 80 88 98 110 112 110 102 95 67 50 13 9 66 24 3 348 349 123 151 157 158 166 168
342 341 341 339 337 337 335 333 332 332 331 331 330 324 317 311 305 297 289 284 273 269 273 276 278 274 274 279 281 262 264 245 164 188 219 213 205 177 171 176 176 178 179 184 193 204 198 189 214 239 269 325 27 353 46 33 288 114 36 39 56 64 93 98 85 82 87 94 98 97 95 103 100 66 44 20 13 24 1 347 352 97 124 149 156 161 171 177
341 341 341 340 337 336 334 332 331 331 331 330 328 322 314 309 302 293 286 281 270 264 264 270 274 270 269 272 272 235 242 256 122 167 201 191 178 158 165 175 174 176 180 185 192 198 185 187 221 254 291 2 27 9 35 30 305 4 57 57 59 84 106 114 95 86 92 101 97 95 104 115 104 71 43 38 33 22 17 26 69 107 113 121 138 153 171 184
341 341 341 340 338 336 334 331 331 331 331 329 326 319 312 308 299 291 283 276 267 260 257 265 268 263 268 266 270 237 240 294 116 165 170 171 158 153 165 172 174 176 178 186 193 195 189 197 220 291 315 30 30 8 18 25 346 5 65 71 67 91 109 117 107 109 118 109 106 110 111 105 93 74 50 46 40 35 41 54 73 95 109 112 121 146 170 182
342 341 341 340 338 337 334 331 331 331 330 329 326 319 312 306 297 289 279 271 262 253 250 257 259 256 260 252 274 243 222 228 161 156 154 160 155 159 170 174 177 178 181 193 198 199 199 206 228 296 325 38 15 3 7 328 43 32 73 95 92 103 110 115 114 121 123 117 117 107 96 93 92 78 55 44 40 44 51 63 73 88 103 106 110 128 138 145
343 342 342 340 339 337 333 331 331 331 331 331 328 322 315 305 296 287 274 266 253 246 242 247 249 242 245 242 266 244 198 186 165 151 144 143 157 169 178 183 183 181 189 198 201 205 205 214 226 328 339 23 1 355 355 334 40 39 80 111 113 115 115 119 116 118 118 121 119 100 89 88 96 87 59 42 37 47 56 66 72 79 90 92 98 99 90 116
344 343 342 341 339 337 333 331 332 332 332 334 334 329 320 309 298 283 270 259 244 236 232 238 237 226 232 223 244 225 171 180 173 155 151 141 157 177 185 194 191 186 196 202 200 199 206 223 146 14 305 333 349 356 2 360 44 62 104 108 114 119 120 124 119 117 116 120 115 99 89 77 73 82 59 42 35 43 59 66 68 71 78 83 89 87 79 243
345 344 343 341 339 336 333 332 332 332 333 339 340 335 326 316 301 281 265 250 233 225 225 232 223 217 221 214 241 218 157 180 177 159 160 140 148 172 188 199 195 191 199 205 199 189 194 174 135 238 264 298 320 12 45 20 66 116 121 111 115 118 121 127 124 122 120 121 115 101 96 80 66 67 53 35 30 39 57 62 66 66 66 77 86 88 81 277
346 344 343 341 339 337 333 332 333 332 336 343 344 341 333 321 307 282 256 233 215 213 220 224 214 212 217 230 248 231 166 181 175 165 167 142 145 156 180 192 186 190 201 208 199 190 195 159 168 252 305 329 301 347 57 15 173 162 154 121 118 115 118 130 130 132 134 135 129 99 94 74 57 58 49 34 29 36 54 54 56 55 45 53 61 74 70 312
346 344 342 340 338 336 331 331 333 332 337 345 347 349 339 326 314 282 228 206 187 194 215 214 206 205 216 238 239 218 182 182 178 173 175 153 147 152 165 172 169 175 179 186 191 189 192 163 180 256 291 296 305 357 360 256 212 204 181 130 138 135 137 142 139 142 142 141 199 268 164 67 59 55 42 41 31 16 41 46 41 34 21 25 33 44 44 345
345 343 341 339 337 334 330 330 332 331 337 345 349 355 349 334 321 85 131 154 157 170 201 203 193 192 222 252 232 210 189 184 184 178 177 164 152 152 156 161 163 166 164 163 171 182 174 140 180 233 243 271 311 316 251 207 206 205 153 157 199 200 145 138 143 154 157 184 258 261 253 65 63 53 39 41 25 351 13 41 35 24 17 22 32 34 31 20
343 342 339 337 335 332 328 328 331 329 332 341 346 355 357 343 333 111 125 129 142 161 174 189 181 179 233 251 230 209 191 186 188 180 178 167 156 155 157 158 159 162 165 165 169 175 158 132 204 232 222 235 261 257 242 210 197 205 188 180 214 215 123 128 145 166 175 180 241 274 15 81 69 50 40 31 16 352 9 44 42 37 37 36 45 50 50 48
341 340 338 336 334 330 325 326 328 324 327 338 341 349 358 1 21 128 132 131 144 158 165 189 182 184 245 233 205 205 190 186 191 186 180 167 162 167 163 155 151 160 163 165 172 170 164 180 224 249 251 245 247 254 251 230 195 199 227 198 184 194 138 140 136 140 170 167 180 305 76 96 77 55 43 31 23 19 35 53 49 46 47 40 46 57 59 59
340 338 337 335 333 327 322 323 323 319 319 333 340 344 357 5 56 120 126 144 152 157 175 190 171 207 258 223 192 196 185 184 186 184 181 170 168 169 161 155 151 153 152 161 175 179 190 207 220 232 236 242 257 264 247 238 205 186 221 207 159 191 188 156 120 123 164 166 124 82 92 87 75 61 49 44 37 36 45 53 54 53 51 44 44 50 54 54
339 337 336 334 332 324 318 319 316 309 306 330 339 336 352 1 97 145 139 147 141 158 197 193 171 223 233 196 185 178 178 185 181 179 183 176 170 165 165 166 160 160 165 172 184 196 207 211 230 247 237 232 236 237 236 250 275 206 235 258 176 193 215 130 114 134 153 139 122 106 97 92 83 66 56 56 52 53 53 52 58 59 56 51 47 46 48 51
337 336 335 334 330 321 315 314 307 290 275 320 337 325 346 3 211 191 180 174 177 196 236 182 188 255 120 160 158 161 176 184 181 178 180 181 175 169 174 173 172 181 183 186 187 197 217 219 228 249 246 236 222 233 257 319 335 300 291 299 298 260 99 99 113 127 132 124 113 104 100 96 86 72 64 63 67 73 71 66 64 64 59 53 53 52 48 49
337 335 335 333 328 319 312 309 296 256 219 265 340 314 307 324 216 178 198 224 230 242 280 191 205 262 56 140 144 163 173 177 182 179 179 182 175 170 177 177 182 195 201 202 182 182 222 238 237 243 245 245 225 238 270 303 301 279 272 273 288 322 92 116 127 120 120 111 92 96 100 93 84 74 64 63 75 78 72 69 67 69 67 57 53 56 55 55
336 334 334 333 327 317 308 303 282 223 200 218 275 277 295 322 302 63 242 242 243 246 251 235 224 238 208 151 148 165 172 176 179 181 183 178 175 177 175 182 193 195 199 202 167 162 215 241 243 245 253 266 262 242 256 269 257 257 265 265 267 278 109 128 135 130 144 128 110 118 103 91 86 79 72 68 74 73 68 67 66 70 73 69 60 57 58 59
335 333 333 331 325 315 304 295 266 211 195 207 213 252 289 323 323 349 327 264 240 247 245 233 228 229 208 188 182 173 176 180 174 178 183 174 183 191 172 186 209 191 172 188 198 190 216 240 240 236 247 245 239 237 244 252 250 250 257 261 259 122 115 128 142 151 161 138 137 142 112 93 90 82 77 70 71 72 69 71 72 74 76 76 72 65 64 62
334 332 332 331 324 313 301 286 254 210 196 204 209 229 261 291 332 349 322 280 245 228 230 221 225 223 207 211 204 182 185 188 177 175 181 177 189 199 182 195 212 190 176 199 218 218 217 224 212 190 210 235 229 221 234 244 246 248 248 261 215 149 151 147 155 166 160 145 152 146 115 103 108 103 94 77 79 88 90 92 86 83 81 80 79 74 71 67
333 330 330 331 322 311 299 277 247 214 200 205 214 222 250 283 337 353 305 279 252 184 207 214 219 220 207 204 190 186 191 193 185 174 176 182 186 190 197 204 209 207 200 208 222 237 247 125 121 171 230 244 244 221 224 236 240 233 235 258 196 167 191 136 148 165 149 147 159 152 131 125 133 129 117 104 103 105 109 107 94 88 86 83 82 76 73 71
331 328 329 329 319 308 295 271 244 218 200 202 215 219 243 295 331 349 296 265 209 155 190 202 209 216 203 193 183 187 191 191 191 174 175 187 184 176 193 204 214 219 203 204 222 240 253 146 150 245 240 235 252 240 226 236 249 222 209 241 217 176 167 130 147 159 147 162 175 185 207 136 140 149 129 127 126 115 110 108 98 93 91 86 82 77 75 75
328 328 328 324 316 301 288 263 233 213 197 201 211 211 230 311 329 328 287 255 175 142 163 176 189 186 182 188 174 175 191 186 182 170 173 189 191 186 195 183 213 239 200 196 227 244 240 172 208 246 238 229 249 248 220 223 246 225 156 226 203 171 153 145 158 168 164 166 175 201 247 140 159 168 155 156 140 129 125 114 105 101 97 93 89 84 82 80
327 327 325 321 311 287 266 237 217 199 195 204 209 207 225 302 325 316 272 239 160 145 158 158 171 161 157 171 166 172 176 149 156 173 177 184 185 198 216 183 194 231 179 198 224 220 207 192 198 222 235 235 237 235 185 209 243 262 81 185 180 164 160 160 171 183 148 108 152 203 240 267 209 161 157 176 158 143 141 123 110 107 102 97 95 94 90 86
327 325 323 317 301 276 248 233 215 196 200 206 204 207 231 294 310 286 263 231 128 144 153 139 160 156 144 161 174 187 118 138 158 173 173 182 179 196 223 209 207 199 174 211 212 138 174 198 191 201 236 238 245 19 148 202 243 55 96 159 162 164 167 166 179 193 158 149 174 195 211 247 214 144 158 188 186 163 149 135 119 113 109 103 101 99 95 90
326 323 321 311 291 266 240 228 210 200 203 197 194 203 233 287 282 249 255 254 127 171 151 138 156 161 156 166 184 202 146 162 179 144 161 183 180 192 232 223 227 213 187 226 243 114 144 191 183 246 271 274 45 34 200 212 139 100 127 141 145 160 163 168 192 182 174 218 225 180 194 243 204 146 170 196 205 182 156 144 127 118 114 107 103 98 94 90
325 322 316 304 283 254 235 221 206 199 192 186 183 185 225 246 239 236 227 145 157 161 139 152 159 162 169 170 182 196 178 164 126 138 161 180 181 193 239 218 231 239 212 227 250 262 242 202 224 262 270 39 78 104 168 153 124 130 137 140 142 148 154 170 185 169 195 225 211 171 190 242 245 174 180 184 198 175 154 148 135 127 120 111 106 101 91 86
324 320 308 292 276 243 225 214 206 195 186 188 183 175 216 219 238 252 179 125 180 149 152 180 167 166 181 184 181 184 186 161 144 159 167 170 183 195 202 196 214 230 224 220 231 242 237 220 205 201 187 155 124 119 121 132 141 146 152 157 152 142 157 174 156 190 232 221 158 165 188 224 246 213 168 150 145 150 151 150 143 134 126 118 110 101 91 85
323 318 301 281 274 230 208 205 201 189 184 187 182 189 231 223 223 249 117 154 204 156 166 183 173 181 190 196 192 175 183 178 164 176 179 177 187 191 198 201 190 201 218 212 206 213 218 207 168 145 164 185 171 127 128 149 163 176 178 181 192 171 178 199 178 206 243 147 129 161 195 222 251 87 137 145 145 149 149 145 142 136 130 125 116 103 93 84
324 317 296 274 267 226 212 202 187 180 175 175 184 203 247 239 202 79 120 170 159 129 153 167 178 190 189 197 198 174 182 178 171 186 189 190 195 191 203 213 205 218 227 204 196 191 188 172 160 160 171 197 207 187 164 171 189 201 193 205 227 212 215 232 210 233 256 131 129 141 187 220 181 110 142 154 151 152 149 141 137 135 132 128 122 112 101 91
326 320 316 285 253 217 208 189 176 172 164 168 193 215 242 236 143 105 170 129 91 128 143 149 175 185 193 204 187 174 190 178 171 187 187 194 208 196 198 208 215 237 250 208 199 199 204 176 167 183 166 183 207 225 209 189 199 210 216 239 250 251 259 264 256 268 275 126 138 156 195 237 162 137 154 155 149 153 153 145 139 137 136 135 131 121 110 103
325 319 340 315 219 182 175 167 165 166 164 175 210 228 234 210 124 167 166 96 117 156 145 158 180 181 192 207 181 181 211 202 178 193 194 196 209 201 196 197 203 223 242 213 188 208 233 187 136 158 143 176 198 211 210 211 199 197 219 245 259 272 270 278 301 312 315 178 164 177 202 45 87 143 155 153 155 162 161 152 150 149 148 149 142 130 120 111
320 305 341 40 149 154 156 155 156 163 172 195 223 222 228 346 68 336 53 80 187 160 155 177 184 188 187 183 179 185 212 218 180 191 202 200 207 203 199 191 191 207 228 220 173 193 232 170 117 139 167 184 209 201 199 222 205 176 211 229 275 5 283 263 220 131 273 260 188 177 212 126 128 169 165 165 172 172 170 169 167 162 159 163 153 140 132 118
311 129 77 103 148 148 151 157 158 168 187 216 233 230 296 5 359 338 20 310 284 243 217 192 180 200 189 172 179 179 188 195 182 192 197 194 204 202 199 194 189 203 222 238 227 194 237 192 129 162 179 169 213 212 197 221 237 231 217 181 124 74 261 260 264 227 248 262 208 192 237 190 175 180 164 175 186 182 181 182 178 172 171 175 162 148 143 129
125 119 98 133 159 148 151 161 162 179 204 229 238 251 281 254 259 311 299 288 274 234 233 212 183 205 196 180 177 172 179 182 177 195 196 179 188 190 194 198 194 204 221 234 237 186 256 227 144 166 176 145 167 200 188 198 232 266 245 150 169 241 226 209 263 274 261 273 247 184 226 228 218 176 167 182 189 186 187 186 183 180 179 180 167 158 156 143
134 127 106 145 162 155 156 159 158 199 219 227 223 220 245 257 273 289 278 270 260 234 232 225 201 208 207 191 170 167 184 188 171 189 204 186 176 179 192 200 192 201 216 227 232 219 253 248 173 164 166 150 173 204 199 180 197 239 227 175 216 277 290 234 247 277 280 287 292 217 220 214 202 162 174 183 186 185 186 185 186 182 179 180 170 164 164 155
170 186 114 147 170 165 160 162 185 222 224 228 244 232 264 281 284 290 284 262 247 233 231 225 201 196 202 191 172 172 193 205 187 192 199 182 169 173 190 201 190 190 205 219 232 228 215 245 207 167 165 182 185 202 234 205 187 212 217 204 208 227 280 273 234 241 280 286 287 281 267 126 72 56 173 176 182 186 182 177 179 180 180 178 169 167 164 157
210 242 118 156 180 172 171 205 221 232 228 227 252 257 285 301 298 295 291 253 236 236 245 243 213 196 190 188 191 186 193 208 203 205 195 181 195 199 183 194 193 174 182 207 221 216 206 231 215 181 186 207 186 37 311 273 239 248 247 223 210 204 221 255 241 199 251 289 300 298 299 87 83 30 174 170 178 180 172 171 177 180 181 177 171 170 165 162
229 238 131 160 176 175 206 234 216 233 244 238 279 276 281 298 293 296 307 231 222 226 228 235 228 210 195 192 198 192 195 205 199 205 203 190 209 205 153 174 189 180 184 202 204 196 204 240 215 193 195 205 112 62 333 309 276 264 278 266 228 230 240 266 279 212 211 265 296 285 284 82 94 101 175 167 168 171 170 171 177 181 180 178 176 173 167 166
286 52 140 162 153 157 230 235 188 209 236 268 314 281 260 268 274 293 328 254 210 197 198 210 219 217 205 200 201 197 200 203 201 208 212 201 195 126 131 167 187 194 202 204 181 166 161 220 208 202 208 176 136 136 150 269 244 238 245 259 253 262 276 288 312 326 263 247 265 272 270 99 107 136 165 160 162 170 171 171 179 183 179 179 178 175 171 171
339 64 155 176 140 125 267 258 210 222 246 290 291 262 217 243 283 308 354 14 200 195 192 192 207 219 208 200 206 203 199 203 207 208 223 222 163 98 137 187 199 203 205 208 179 170 174 187 171 187 214 190 175 176 178 198 234 244 214 175 252 251 219 261 317 276 272 282 296 287 294 95 112 145 160 162 165 171 171 172 181 183 179 181 179 175 175 174
303 175 178 203 227 280 280 326 325 297 315 298 286 287 194 196 266 321 348 37 54 194 188 147 175 191 170 187 201 195 195 223 222 197 214 215 155 109 170 198 204 209 206 263 206 176 176 189 178 205 226 202 188 202 214 231 238 241 201 189 214 213 209 241 254 258 266 135 216 282 339 100 124 152 167 170 169 170 169 174 182 182 181 183 178 176 177 179
296 225 169 193 212 263 252 297 311 297 320 316 299 344 323 158 127 8 320 47 61 67 73 91 161 172 153 175 180 165 178 215 229 177 192 195 153 107 155 181 194 209 176 200 208 183 179 200 194 228 273 181 229 244 249 250 243 228 204 198 203 205 215 256 268 283 348 142 204 267 61 123 150 163 173 172 173 173 170 178 184 182 183 182 177 177 179 183
310 342 11 326 255 268 222 178 323 315 320 321 324 345 338 126 129 98 60 55 51 57 64 66 96 134 115 165 176 146 149 160 137 138 152 151 129 111 129 168 184 179 156 178 200 192 193 196 190 217 83 121 189 222 216 228 240 239 215 201 195 194 210 251 278 360 86 248 230 130 138 173 160 165 177 174 176 176 172 183 188 183 185 182 177 179 181 185
3 32 14 357 333 308 310 343 334 324 303 294 311 324 345 64 100 73 57 62 53 35 51 70 77 84 75 67 151 117 109 132 119 103 112 124 131 136 141 149 159 168 174 178 181 208 227 193 177 201 164 106 122 165 190 216 237 245 223 203 191 197 214 246 271 172 207 288 9 132 168 197 150 164 176 173 177 180 179 186 186 182 182 178 175 178 183 191
10 11 6 346 323 313 322 315 305 301 291 286 311 340 8 43 74 70 26 37 67 47 43 86 84 80 77 67 60 58 39 45 90 76 54 80 130 150 145 130 138 168 186 175 161 228 267 177 158 197 179 97 86 135 189 211 214 209 206 198 193 200 211 238 235 153 184 304 95 149 170 152 117 154 164 166 176 176 173 177 175 174 176 173 175 181 185 195
14 357 338 320 299 300 314 308 287 272 260 241 333 13 16 37 67 70 30 22 60 54 48 81 82 75 80 77 65 57 33 6 20 34 7 354 47 88 102 85 116 169 178 165 156 201 255 189 159 206 196 116 81 130 189 210 217 204 191 188 194 198 195 200 192 164 178 221 158 163 174 151 97 101 132 147 160 159 160 167 169 172 173 171 176 184 188 196
17 349 332 316 300 324 328 318 294 272 251 72 7 360 14 36 40 50 58 45 47 58 48 38 40 61 86 82 68 60 45 9 351 355 345 338 358 7 20 36 9 180 161 150 163 194 216 187 154 213 226 135 78 226 206 202 224 224 212 203 204 210 204 185 175 177 204 190 162 181 201 164 135 129 134 146 160 165 168 171 172 174 173 174 180 186 190 194
14 2 353 315 282 339 340 323 313 292 318 30 359 335 330 348 348 337 80 67 51 61 52 352 311 286 91 79 64 51 43 24 359 350 338 333 336 334 357 38 350 332 131 139 149 176 200 182 166 216 245 161 128 248 226 210 230 232 221 204 202 205 201 176 168 178 208 212 186 198 289 104 135 152 159 165 174 179 177 176 177 175 171 174 182 189 190 188
Height
1541 1540 1538 1537 1535 1534 1532 1531 1529 1528 1527 1525 1524 1523 1522 1521 1520 1519 1519 1519 1519 1518 1518 1518 1517 1518 1518 1517 1517 1516 1516 1516 1516 1516 1516 1516 1517 1518 1519 1520 1521 1523 1524 1525 1526 1527 1527 1528 1528 1528 1528 1528 1527 1526 1525 1525 1524 1523 1521 1522 1526 1527 1527 1524 1521 1522 1523 1526 1528 1528 1528 1529 1530 1531 1531 1531 1532 1532 1533 1535 1535 1536 1536 1536 1536 1537 1538 1539
1540 1539 1537 1536 1535 1533 1532 1530 1529 1527 1526 1525 1523 1522 1521 1520 1519 1518 1518 1518 1518 1518 1517 1517 1517 1517 1517 1517 1516 1516 1516 1516 1515 1515 1515 1516 1516 1517 1518 1520 1521 1523 1524 1525 1526 1527 1528 1528 1528 1528 1528 1527 1525 1524 1523 1524 1523 1522 1520 1522 1527 1526 1524 1521 1519 1520 1521 1526 1529 1528 1530 1530 1531 1531 1531 1531 1531 1532 1533 1534 1536 1537 1537 1538 1538 1538 1538 1540
1540 1538 1537 1535 1534 1532 1531 1529 1528 1526 1525 1524 1522 1521 1520 1519 1518 1517 1517 1517 1517 1517 1517 1516 1516 1516 1516 1516 1516 1516 1515 1515 1515 1515 1514 1515 1515 1516 1518 1519 1521 1522 1524 1525 1526 1528 1529 1529 1528 1528 1528 1525 1524 1524 1522 1522 1522 1520 1520 1524 1526 1522 1520 1521 1521 1522 1523 1527 1528 1529 1531 1531 1532 1532 1532 1532 1531 1532 1533 1534 1535 1537 1537 1538 1539 1539 1540 1541
1539 1537 1536 1534 1533 1531 1530 1528 1527 1526 1524 1523 1521 1520 1519 1518 1517 1517 1516 1516 1516 1516 1516 1516 1516 1516 1516 1516 1516 1515 1515 1515 1514 1514 1514 1514 1515 1516 1518 1519 1521 1522 1524 1525 1526 1527 1528 1528 1528 1528 1527 1522 1521 1522 1520 1521 1522 1519 1520 1524 1523 1519 1521 1523 1523 1524 1527 1529 1529 1530 1531 1532 1533 1534 1533 1533 1533 1533 1534 1535 1536 1536 1537 1538 1540 1540 1541 1542
1538 1537 1535 1534 1532 1530 1529 1527 1526 1524 1523 1522 1520 1519 1518 1517 1516 1516 1515 1515 1515 1515 1515 1515 1515 1515 1515 1515 1516 1515 1516 1516 1513 1513 1513 1514 1515 1516 1518 1519 1520 1522 1523 1525 1525 1526 1527 1528 1528 1527 1525 1520 1519 1519 1519 1521 1521 1519 1519 1520 1520 1519 1522 1525 1525 1529 1532 1533 1532 1532 1533 1534 1534 1535 1535 1535 1536 1536 1536 1536 1536 1537 1538 1539 1540 1542 1542 1543
1538 1536 1534 1532 1531 1529 1527 1526 1525 1523 1522 1521 1519 1518 1517 1516 1515 1515 1514 1514 1514 1514 1515 1515 1515 1515 1515 1515 1515 1514 1516 1516 1513 1512 1513 1513 1515 1516 1517 1519 1520 1521 1523 1524 1525 1526 1527 1528 1527 1525 1522 1519 1519 1520 1520 1521 1520 1520 1520 1519 1520 1519 1521 1525 1529 1533 1533 1533 1534 1534 1535 1534 1534 1536 1537 1537 1537 1538 1536 1536 1537 1538 1539 1540 1541 1542 1544 1544
1537 1535 1533 1531 1530 1528 1526 1525 1523 1522 1521 1520 1518 1517 1516 1515 1514 1514 1513 1513 1513 1514 1514 1514 1514 1515 1515 1515 1515 1514 1515 1514 1513 1513 1513 1513 1515 1516 1517 1519 1520 1521 1523 1524 1525 1526 1527 1528 1526 1524 1521 1519 1521 1520 1520 1522 1519 1520 1522 1521 1521 1521 1523 1526 1530 1534 1534 1534 1535 1534 1534 1534 1535 1538 1539 1538 1539 1539 1538 1538 1538 1539 1540 1540 1541 1542 1543 1544
1536 1534 1532 1530 1528 1527 1525 1523 1522 1521 1519 1518 1517 1516 1515 1513 1513 1512 1512 1512 1512 1513 1513 1514 1514 1514 1515 1515 1515 1514 1514 1514 1513 1513 1514 1514 1515 1516 1517 1518 1519 1521 1522 1524 1525 1526 1527 1526 1526 1524 1521 1521 1523 1521 1520 1521 1519 1519 1522 1522 1522 1523 1525 1527 1530 1533 1534 1535 1535 1534 1534 1536 1537 1539 1539 1540 1540 1540 1540 1540 1540 1541 1541 1541 1542 1542 1543 1545
1535 1533 1531 1529 1527 1525 1524 1522 1521 1519 1518 1517 1516 1514 1513 1512 1512 1511 1511 1511 1511 1512 1512 1513 1514 1514 1514 1514 1515 1514 1512 1513 1513 1513 1514 1514 1515 1516 1517 1518 1519 1521 1522 1524 1525 1526 1526 1525 1525 1524 1523 1522 1523 1522 1519 1521 1522 1521 1521 1521 1522 1524 1526 1527 1529 1531 1533 1533 1533 1534 1534 1537 1538 1539 1540 1542 1542 1542 1542 1542 1542 1542 1543 1543 1543 1543 1545 1546
1535 1532 1530 1528 1526 1524 1522 1521 1520 1518 1517 1516 1514 1513 1512 1511 1510 1510 1510 1510 1511 1511 1512 1513 1513 1514 1514 1515 1515 1512 1511 1513 1513 1514 1514 1515 1515 1516 1517 1518 1519 1520 1522 1524 1524 1525 1526 1525 1525 1526 1525 1523 1522 1522 1520 1521 1524 1522 1521 1521 1522 1525 1526 1528 1529 1530 1531 1532 1533 1533 1535 1538 1538 1539 1543 1544 1543 1543 1543 1543 1544 1544 1544 1544 1544 1545 1546 1545
1533 1531 1529 1527 1525 1523 1521 1520 1518 1517 1516 1515 1513 1512 1511 1510 1510 1509 1509 1509 1510 1510 1511 1512 1513 1513 1514 1514 1514 1510 1510 1513 1513 1514 1515 1515 1515 1516 1517 1519 1519 1521 1523 1524 1524 1525 1526 1526 1526 1526 1524 1523 1522 1521 1522 1522 1523 1522 1521 1523 1524 1525 1527 1528 1529 1531 1531 1532 1533 1532 1534 1539 1538 1540 1544 1545 1545 1544 1544 1544 1544 1545 1544 1544 1545 1545 1546 1545
1532 1530 1528 1526 1524 1522 1520 1519 1517 1516 1515 1514 1513 1511 1510 1510 1509 1508 1508 1509 1509 1510 1511 1512 1512 1513 1514 1514 1513 1510 1511 1512 1513 1514 1514 1515 1515 1516 1518 1519 1520 1521 1523 1524 1525 1525 1525 1525 1526 1525 1524 1523 1521 1521 1524 1523 1522 1522 1521 1527 1530 1528 1529 1529 1529 1531 1530 1532 1533 1532 1538 1543 1541 1542 1545 1545 1546 1545 1545 1545 1545 1545 1545 1545 1545 1546 1546 1545
1531 1529 1527 1525 1523 1521 1519 1517 1516 1515 1514 1513 1512 1511 1510 1509 1508 1508 1508 1508 1509 1510 1511 1511 1512 1513 1514 1513 1511 1511 1511 1512 1512 1514 1514 1515 1516 1516 1517 1518 1519 1521 1523 1524 1525 1525 1525 1525 1525 1525 1525 1523 1521 1523 1525 1522 1522 1522 1521 1528 1534 1537 1537 1530 1529 1531 1530 1532 1532 1533 1545 1550 1543 1543 1545 1545 1546 1545 1545 1545 1545 1545 1545 1545 1545 1545 1545 1545
1530 1528 1526 1523 1521 1520 1518 1516 1516 1514 1514 1513 1512 1511 1510 1509 1509 1508 1508 1508 1509 1510 1510 1511 1512 1513 1513 1512 1510 1510 1511 1511 1513 1513 1514 1515 1516 1517 1518 1518 1519 1520 1521 1522 1523 1524 1524 1524 1525 1525 1524 1523 1522 1523 1523 1520 1521 1521 1523 1528 1530 1538 1539 1529 1528 1532 1532 1534 1530 1532 1544 1548 1543 1542 1545 1546 1546 1546 1545 1545 1546 1546 1545 1545 1545 1545 1545 1545
1529 1527 1524 1522 1520 1518 1517 1516 1515 1514 1513 1513 1512 1511 1509 1509 1509 1508 1508 1508 1509 1509 1510 1511 1512 1512 1513 1511 1509 1510 1510 1512 1512 1513 1514 1515 1516 1518 1518 1519 1520 1520 1521 1522 1522 1523 1523 1524 1524 1523 1522 1523 1522 1523 1521 1519 1519 1519 1527 1532 1526 1530 1535 1530 1528 1530 1533 1533 1529 1532 1542 1546 1544 1543 1545 1546 1547 1546 1546 1546 1546 1546 1545 1546 1546 1546 1546 1546
1528 1525 1523 1521 1519 1517 1516 1515 1514 1513 1513 1512 1511 1511 1510 1509 1508 1508 1508 1508 1509 1509 1510 1511 1511 1512 1511 1509 1509 1509 1511 1512 1512 1513 1514 1515 1517 1518 1518 1519 1520 1520 1521 1521 1521 1522 1523 1523 1523 1522 1521 1521 1520 1520 1521 1521 1521 1519 1523 1530 1527 1528 1534 1534 1530 1528 1529 1531 1529 1532 1541 1546 1544 1543 1545 1547 1547 1546 1545 1546 1546 1546 1546 1546 1546 1546 1546 1546
1526 1524 1521 1520 1518 1516 1514 1514 1513 1512 1512 1512 1511 1510 1510 1509 1509 1509 1508 1509 1509 1509 1510 1510 1511 1512 1510 1507 1508 1509 1510 1511 1512 1513 1514 1515 1517 1518 1519 1520 1520 1521 1520 1521 1521 1521 1522 1522 1522 1521 1519 1518 1516 1519 1528 1530 1526 1521 1519 1522 1524 1526 1530 1533 1535 1531 1527 1530 1533 1533 1539 1546 1544 1542 1545 1547 1547 1546 1545 1546 1546 1546 1546 1546 1547 1547 1547 1546
1524 1522 1520 1518 1516 1514 1513 1513 1512 1511 1511 1511 1510 1510 1509 1509 1508 1508 1508 1509 1509 1510 1510 1510 1511 1513 1509 1506 1507 1508 1509 1510 1511 1513 1514 1515 1516 1518 1519 1519 1520 1521 1520 1520 1520 1520 1521 1519 1519 1519 1517 1518 1518 1521 1529 1529 1523 1522 1521 1520 1522 1523 1525 1530 1536 1533 1528 1532 1536 1537 1542 1546 1544 1542 1544 1546 1547 1546 1546 1547 1547 1546 1546 1547 1547 1547 1547 1547
1523 1520 1518 1516 1515 1513 1512 1511 1511 1511 1511 1510 1510 1509 1509 1509 1508 1508 1508 1509 1509 1508 1508 1507 1508 1508 1506 1504 1506 1507 1508 1509 1511 1513 1514 1514 1516 1518 1518 1519 1520 1519 1519 1519 1518 1518 1518 1517 1519 1523 1522 1518 1517 1517 1519 1518 1518 1521 1521 1520 1522 1523 1526 1530 1532 1530 1528 1534 1538 1539 1544 1546 1545 1544 1544 1545 1546 1546 1547 1546 1547 1547 1547 1548 1548 1548 1548 1548
1521 1519 1517 1515 1513 1512 1511 1510 1510 1510 1510 1510 1509 1509 1508 1507 1506 1507 1508 1507 1506 1504 1504 1505 1504 1504 1504 1504 1506 1507 1508 1510 1511 1512 1514 1514 1516 1517 1518 1519 1518 1518 1516 1515 1516 1515 1516 1521 1522 1521 1518 1513 1512 1513 1513 1513 1516 1519 1519 1520 1521 1523 1531 1533 1532 1530 1528 1536 1542 1541 1543 1546 1546 1545 1543 1545 1546 1546 1547 1547 1547 1548 1548 1549 1549 1549 1549 1548
1519 1517 1515 1513 1511 1510 1509 1509 1509 1509 1509 1509 1509 1509 1508 1506 1505 1506 1506 1504 1503 1503 1503 1504 1504 1503 1504 1504 1506 1506 1508 1509 1511 1512 1513 1514 1516 1516 1517 1517 1517 1517 1514 1512 1514 1515 1518 1524 1520 1512 1509 1509 1511 1511 1513 1515 1517 1519 1519 1520 1520 1524 1532 1532 1532 1532 1529 1537 1546 1542 1544 1547 1545 1545 1545 1545 1546 1547 1548 1549 1549 1549 1549 1550 1550 1550 1550 1549
1517 1515 1513 1511 1510 1508 1508 1508 1508 1508 1508 1508 1508 1508 1508 1507 1506 1506 1505 1503 1501 1502 1502 1502 1503 1503 1503 1504 1505 1506 1507 1507 1509 1511 1512 1514 1515 1514 1514 1515 1515 1514 1512 1513 1517 1519 1522 1522 1513 1506 1506 1508 1511 1512 1514 1516 1517 1518 1517 1519 1522 1524 1532 1535 1533 1532 1529 1538 1546 1542 1544 1549 1546 1545 1546 1546 1546 1548 1550 1551 1550 1550 1550 1550 1551 1551 1550 1550
1515 1513 1511 1510 1508 1507 1506 1506 1506 1506 1507 1507 1507 1508 1507 1507 1506 1506 1506 1503 1500 1500 1501 1501 1502 1502 1503 1504 1504 1505 1506 1505 1507 1510 1511 1513 1513 1512 1513 1513 1512 1512 1513 1515 1517 1521 1523 1515 1506 1504 1507 1511 1513 1513 1515 1517 1516 1516 1516 1519 1522 1523 1530 1537 1538 1534 1530 1535 1541 1541 1544 1548 1546 1546 1547 1548 1548 1549 1551 1551 1551 1551 1551 1551 1551 1551 1551 1551
1513 1511 1510 1508 1506 1505 1504 1505 1505 1505 1506 1506 1507 1507 1506 1506 1506 1505 1505 1501 1499 1498 1499 1500 1500 1501 1502 1502 1503 1505 1505 1504 1505 1507 1510 1512 1512 1513 1512 1510 1512 1514 1514 1513 1514 1518 1516 1507 1503 1506 1509 1511 1514 1514 1515 1518 1516 1513 1514 1516 1519 1521 1522 1528 1534 1533 1531 1534 1536 1538 1547 1549 1546 1547 1548 1548 1548 1548 1549 1549 1550 1551 1551 1551 1551 1551 1551 1551
1511 1509 1507 1506 1505 1503 1503 1504 1503 1504 1505 1505 1506 1506 1506 1506 1505 1505 1504 1501 1499 1498 1498 1499 1499 1500 1500 1501 1502 1503 1503 1504 1504 1506 1509 1510 1511 1512 1511 1510 1513 1515 1513 1512 1515 1517 1512 1505 1505 1509 1510 1510 1514 1514 1511 1515 1515 1511 1511 1510 1512 1517 1519 1524 1531 1533 1539 1544 1536 1535 1550 1554 1546 1547 1548 1547 1548 1548 1548 1548 1549 1551 1551 1552 1552 1552 1552 1552
1509 1507 1505 1504 1503 1502 1502 1502 1501 1503 1504 1504 1505 1505 1505 1505 1504 1505 1504 1500 1499 1497 1497 1498 1498 1498 1499 1500 1501 1502 1505 1504 1503 1506 1508 1510 1511 1510 1512 1511 1511 1512 1510 1511 1515 1514 1508 1504 1506 1509 1510 1511 1514 1512 1507 1510 1513 1512 1510 1508 1509 1514 1519 1526 1529 1532 1541 1543 1532 1530 1545 1553 1549 1547 1547 1546 1547 1549 1548 1548 1549 1550 1551 1551 1552 1552 1553 1552
1506 1505 1503 1502 1501 1501 1501 1500 1501 1502 1502 1504 1504 1504 1505 1504 1504 1505 1504 1505 1502 1496 1495 1497 1497 1497 1497 1498 1499 1502 1506 1503 1502 1506 1507 1509 1510 1510 1512 1511 1511 1513 1508 1512 1519 1512 1505 1507 1509 1510 1511 1511 1512 1510 1505 1505 1511 1514 1510 1508 1511 1515 1520 1525 1526 1529 1532 1533 1534 1532 1535 1544 1547 1546 1545 1545 1547 1548 1548 1548 1548 1549 1550 1551 1552 1553 1553 1553
1504 1502 1501 1500 1499 1499 1499 1499 1501 1501 1502 1502 1502 1504 1505 1503 1505 1503 1506 1513 1507 1493 1493 1495 1495 1496 1497 1498 1499 1499 1500 1498 1501 1506 1506 1508 1510 1510 1511 1508 1508 1510 1507 1514 1521 1508 1501 1508 1509 1509 1512 1511 1508 1506 1503 1503 1510 1513 1508 1507 1511 1514 1518 1520 1522 1526 1526 1533 1543 1537 1533 1541 1543 1542 1543 1544 1546 1549 1548 1547 1547 1549 1550 1551 1552 1553 1553 1553
1502 1500 1499 1498 1497 1497 1498 1498 1499 1500 1501 1501 1502 1504 1503 1503 1505 1501 1506 1513 1503 1491 1492 1494 1495 1497 1496 1498 1499 1498 1497 1497 1499 1503 1505 1507 1509 1508 1509 1507 1505 1507 1507 1511 1513 1505 1501 1505 1505 1507 1511 1508 1505 1505 1502 1502 1509 1509 1506 1508 1511 1513 1515 1518 1523 1526 1529 1538 1542 1534 1532 1539 1543 1542 1543 1545 1546 1546 1546 1545 1546 1548 1549 1550 1551 1552 1552 1553
1500 1498 1497 1497 1496 1496 1496 1497 1498 1499 1500 1501 1502 1503 1503 1504 1503 1505 1512 1510 1497 1491 1493 1493 1494 1495 1495 1497 1498 1497 1496 1497 1498 1501 1504 1506 1508 1508 1507 1507 1506 1507 1508 1508 1508 1504 1500 1502 1503 1505 1507 1504 1503 1504 1502 1502 1504 1505 1508 1513 1516 1517 1517 1520 1522 1525 1537 1544 1536 1529 1528 1536 1546 1544 1538 1541 1540 1537 1540 1543 1544 1546 1548 1550 1551 1552 1552 1553
1498 1496 1496 1495 1495 1495 1495 1496 1497 1497 1499 1500 1501 1502 1503 1502 1500 1507 1512 1501 1492 1493 1493 1493 1493 1492 1493 1496 1497 1497 1496 1496 1498 1501 1504 1505 1507 1508 1507 1510 1511 1511 1513 1511 1509 1504 1500 1503 1503 1501 1502 1501 1502 1505 1504 1502 1501 1504 1510 1515 1522 1526 1525 1528 1530 1532 1545 1545 1530 1525 1526 1533 1546 1542 1532 1534 1533 1530 1536 1540 1542 1544 1546 1549 1550 1551 1552 1552
1496 1495 1494 1494 1494 1494 1494 1495 1495 1497 1498 1499 1501 1502 1502 1503 1503 1503 1501 1495 1496 1496 1491 1491 1492 1490 1492 1493 1494 1495 1496 1497 1497 1498 1501 1502 1505 1506 1506 1508 1509 1515 1519 1514 1508 1505 1502 1500 1497 1498 1501 1499 1502 1508 1509 1506 1503 1506 1511 1516 1525 1532 1536 1540 1541 1539 1541 1538 1528 1525 1528 1534 1540 1535 1530 1532 1531 1531 1534 1536 1539 1543 1545 1548 1550 1551 1552 1552
1495 1494 1493 1493 1493 1493 1493 1494 1495 1497 1498 1499 1501 1499 1500 1507 1506 1497 1491 1493 1495 1491 1485 1488 1489 1488 1492 1494 1494 1493 1494 1497 1496 1496 1497 1498 1502 1504 1502 1499 1499 1508 1513 1507 1505 1508 1506 1500 1496 1501 1502 1497 1498 1506 1514 1513 1509 1508 1512 1518 1524 1531 1543 1548 1542 1537 1535 1532 1527 1525 1530 1536 1536 1532 1529 1529 1530 1532 1534 1537 1540 1542 1545 1547 1549 1550 1551 1551
1494 1493 1493 1493 1492 1493 1493 1493 1494 1496 1497 1499 1499 1498 1503 1508 1501 1492 1490 1489 1488 1486 1485 1487 1488 1490 1493 1493 1492 1491 1495 1497 1494 1495 1498 1499 1503 1504 1501 1500 1498 1501 1503 1502 1503 1505 1509 1509 1501 1499 1499 1495 1494 1497 1501 1504 1507 1508 1504 1509 1516 1520 1532 1540 1535 1534 1534 1532 1532 1531 1534 1535 1534 1533 1528 1524 1529 1532 1535 1538 1540 1543 1545 1546 1548 1549 1550 1551
1493 1493 1493 1492 1492 1493 1492 1494 1495 1496 1498 1498 1497 1499 1504 1502 1493 1489 1488 1485 1484 1485 1486 1486 1488 1494 1495 1492 1489 1487 1492 1496 1494 1495 1499 1499 1502 1501 1499 1500 1499 1499 1502 1505 1504 1500 1506 1506 1495 1492 1492 1491 1494 1491 1489 1497 1509 1507 1500 1508 1515 1509 1513 1524 1525 1524 1525 1529 1533 1533 1531 1527 1528 1529 1524 1524 1530 1532 1536 1539 1539 1543 1544 1545 1547 1548 1549 1550
1493 1493 1493 1492 1492 1492 1493 1494 1495 1496 1497 1496 1497 1500 1497 1491 1487 1486 1484 1482 1484 1485 1487 1489 1489 1494 1496 1493 1492 1489 1489 1492 1493 1496 1498 1496 1497 1496 1494 1493 1494 1497 1499 1500 1500 1501 1508 1505 1492 1493 1493 1489 1492 1491 1488 1497 1507 1506 1507 1513 1509 1498 1503 1518 1524 1521 1522 1531 1532 1528 1527 1527 1530 1531 1525 1526 1531 1531 1534 1537 1538 1541 1543 1545 1546 1547 1548 1550
1493 1493 1493 1493 1493 1493 1494 1495 1495 1497 1497 1494 1497 1497 1489 1484 1483 1482 1480 1481 1482 1482 1486 1491 1489 1490 1493 1493 1493 1492 1490 1491 1493 1495 1496 1496 1495 1492 1492 1491 1489 1492 1492 1492 1495 1495 1500 1502 1493 1493 1497 1492 1490 1491 1490 1490 1495 1504 1510 1505 1499 1500 1504 1512 1524 1527 1529 1535 1531 1525 1526 1528 1532 1533 1528 1528 1532 1532 1532 1534 1535 1539 1542 1544 1545 1546 1548 1549
1493 1493 1493 1493 1493 1493 1494 1495 1496 1497 1495 1494 1497 1494 1487 1484 1481 1478 1479 1480 1481 1482 1485 1488 1485 1484 1487 1490 1490 1489 1489 1493 1494 1494 1494 1497 1495 1488 1489 1492 1489 1489 1488 1489 1495 1492 1493 1504 1499 1491 1496 1494 1488 1493 1498 1494 1491 1497 1499 1492 1497 1512 1514 1514 1523 1531 1534 1536 1529 1525 1525 1523 1523 1526 1527 1528 1530 1531 1531 1532 1534 1536 1540 1542 1543 1545 1547 1548
1493 1493 1493 1493 1494 1494 1495 1495 1496 1496 1495 1495 1495 1491 1485 1482 1479 1477 1480 1479 1479 1483 1485 1482 1481 1482 1483 1483 1485 1486 1488 1490 1491 1492 1493 1494 1493 1486 1484 1488 1488 1488 1487 1487 1493 1491 1491 1505 1508 1494 1491 1493 1491 1495 1503 1502 1495 1494 1494 1492 1496 1505 1509 1511 1515 1520 1528 1532 1531 1530 1526 1519 1514 1513 1518 1524 1524 1525 1528 1530 1532 1534 1538 1541 1542 1544 1546 1547
1493 1492 1492 1494 1494 1494 1495 1495 1495 1494 1493 1491 1489 1486 1482 1481 1479 1477 1478 1478 1478 1480 1482 1478 1478 1482 1482 1478 1480 1483 1485 1485 1485 1488 1489 1489 1491 1488 1482 1483 1485 1486 1487 1487 1489 1490 1491 1503 1509 1499 1492 1497 1500 1498 1498 1500 1499 1500 1501 1501 1501 1502 1504 1508 1509 1511 1518 1525 1530 1532 1529 1521 1513 1508 1512 1518 1520 1521 1524 1528 1531 1534 1537 1539 1541 1543 1545 1546
1492 1491 1492 1494 1494 1494 1495 1495 1493 1491 1489 1487 1485 1483 1482 1481 1479 1476 1476 1477 1476 1475 1476 1475 1475 1478 1479 1479 1479 1479 1482 1484 1483 1485 1486 1485 1488 1488 1482 1481 1483 1484 1489 1491 1491 1491 1494 1499 1503 1503 1502 1505 1502 1494 1491 1492 1494 1497 1497 1496 1499 1502 1506 1516 1520 1513 1511 1517 1521 1525 1528 1525 1517 1511 1510 1514 1516 1518 1522 1527 1531 1533 1535 1538 1541 1543 1544 1546
1491 1490 1492 1494 1494 1494 1495 1493 1489 1488 1488 1486 1483 1483 1482 1481 1479 1476 1474 1475 1475 1473 1474 1475 1474 1474 1475 1476 1476 1476 1479 1483 1482 1483 1483 1481 1481 1482 1480 1479 1481 1483 1486 1491 1489 1485 1488 1495 1500 1503 1502 1501 1497 1491 1491 1491 1489 1491 1492 1489 1492 1496 1502 1516 1523 1516 1512 1515 1515 1517 1523 1524 1516 1512 1511 1512 1514 1518 1522 1526 1530 1532 1534 1537 1540 1542 1544 1545
1492 1491 1493 1494 1493 1494 1495 1491 1488 1487 1486 1483 1482 1481 1480 1480 1478 1475 1473 1473 1473 1473 1474 1475 1474 1474 1473 1472 1473 1476 1478 1480 1481 1480 1480 1480 1477 1477 1479 1480 1482 1482 1482 1486 1487 1484 1489 1497 1503 1507 1503 1497 1494 1491 1489 1490 1491 1494 1493 1490 1492 1495 1498 1504 1508 1508 1511 1514 1515 1517 1523 1524 1518 1513 1512 1513 1515 1519 1522 1526 1529 1531 1533 1536 1539 1541 1543 1544
1493 1493 1493 1493 1493 1493 1493 1490 1488 1487 1484 1482 1482 1480 1479 1478 1477 1475 1474 1473 1472 1472 1473 1474 1472 1472 1472 1470 1473 1474 1476 1480 1482 1478 1478 1480 1478 1478 1479 1480 1482 1481 1480 1483 1483 1485 1495 1502 1510 1524 1525 1513 1508 1507 1502 1498 1496 1495 1495 1495 1495 1496 1497 1500 1501 1505 1512 1514 1516 1519 1522 1523 1519 1514 1514 1515 1515 1518 1522 1526 1529 1530 1533 1535 1538 1540 1542 1544
1494 1494 1493 1493 1493 1493 1491 1489 1488 1487 1485 1484 1483 1480 1479 1478 1476 1476 1474 1473 1472 1470 1472 1473 1471 1471 1470 1471 1474 1474 1474 1479 1481 1479 1478 1478 1477 1478 1479 1480 1480 1478 1477 1480 1478 1480 1494 1502 1508 1522 1526 1519 1520 1520 1512 1504 1498 1496 1498 1499 1498 1497 1499 1503 1505 1510 1516 1517 1517 1517 1518 1520 1518 1515 1516 1516 1516 1519 1522 1525 1528 1529 1532 1535 1537 1540 1542 1543
1494 1494 1492 1492 1492 1491 1490 1489 1489 1488 1486 1486 1485 1481 1479 1478 1476 1475 1474 1473 1472 1470 1471 1472 1470 1471 1472 1473 1476 1478 1476 1476 1477 1479 1480 1478 1477 1477 1477 1478 1480 1478 1478 1481 1478 1479 1490 1497 1498 1503 1507 1510 1513 1508 1499 1497 1499 1501 1502 1502 1500 1499 1499 1502 1506 1510 1513 1516 1517 1514 1513 1518 1520 1518 1517 1517 1517 1519 1521 1524 1527 1528 1531 1534 1536 1539 1541 1542
1496 1496 1496 1495 1493 1490 1488 1488 1488 1488 1487 1488 1487 1483 1481 1479 1476 1475 1474 1473 1473 1472 1471 1471 1469 1472 1475 1475 1477 1480 1478 1477 1477 1479 1480 1479 1477 1477 1478 1478 1479 1480 1480 1480 1479 1480 1489 1495 1494 1496 1500 1502 1502 1498 1494 1496 1498 1499 1500 1501 1502 1501 1501 1504 1507 1508 1508 1514 1518 1513 1512 1517 1518 1515 1516 1516 1516 1518 1520 1523 1526 1528 1531 1533 1536 1538 1540 1541
1498 1499 1500 1500 1498 1493 1490 1489 1489 1488 1487 1487 1486 1483 1481 1479 1478 1479 1476 1473 1472 1472 1473 1475 1473 1472 1474 1475 1477 1482 1482 1480 1482 1483 1482 1480 1478 1478 1479 1478 1478 1479 1479 1479 1479 1480 1488 1494 1492 1493 1498 1497 1495 1496 1495 1495 1496 1496 1497 1500 1501 1502 1503 1505 1506 1504 1505 1512 1515 1513 1513 1515 1513 1511 1513 1514 1515 1517 1520 1522 1524 1528 1531 1533 1535 1537 1539 1540
1502 1502 1501 1501 1499 1495 1493 1492 1490 1489 1487 1487 1486 1484 1483 1481 1480 1481 1477 1475 1475 1473 1473 1479 1478 1473 1473 1474 1477 1484 1487 1487 1488 1487 1484 1482 1481 1479 1481 1482 1479 1478 1477 1478 1479 1479 1486 1494 1492 1493 1498 1498 1496 1496 1495 1495 1498 1498 1498 1499 1500 1502 1503 1503 1504 1503 1505 1509 1508 1508 1513 1513 1509 1507 1509 1511 1514 1516 1519 1521 1524 1527 1530 1532 1534 1536 1538 1539
1507 1506 1504 1502 1499 1495 1493 1491 1489 1488 1486 1486 1487 1485 1483 1483 1482 1481 1478 1478 1481 1478 1475 1479 1479 1474 1473 1474 1479 1485 1488 1488 1490 1488 1485 1485 1483 1481 1483 1484 1481 1478 1477 1479 1481 1480 1486 1496 1495 1491 1497 1500 1498 1497 1496 1497 1499 1501 1502 1501 1500 1502 1504 1504 1505 1505 1508 1510 1507 1507 1513 1514 1510 1507 1508 1512 1516 1517 1519 1522 1524 1527 1530 1532 1534 1535 1537 1538
1510 1509 1507 1505 1500 1494 1493 1490 1488 1487 1486 1487 1489 1488 1486 1485 1484 1483 1481 1480 1481 1481 1479 1480 1480 1477 1475 1475 1479 1483 1484 1485 1487 1486 1484 1485 1484 1483 1483 1483 1481 1481 1480 1481 1482 1481 1485 1494 1495 1494 1500 1504 1500 1499 1499 1497 1499 1503 1504 1502 1502 1504 1504 1504 1505 1505 1507 1510 1511 1513 1515 1513 1511 1511 1513 1515 1517 1518 1520 1522 1524 1527 1529 1531 1533 1535 1536 1537
1511 1509 1508 1507 1502 1494 1492 1490 1487 1488 1490 1491 1491 1490 1489 1487 1483 1482 1484 1483 1480 1481 1481 1480 1480 1481 1480 1480 1481 1482 1483 1483 1484 1485 1484 1484 1483 1482 1482 1481 1481 1481 1481 1482 1483 1483 1485 1491 1495 1497 1504 1507 1504 1502 1499 1501 1507 1509 1503 1500 1501 1502 1503 1504 1505 1505 1505 1507 1511 1514 1512 1509 1509 1511 1514 1516 1516 1518 1520 1522 1524 1527 1529 1531 1533 1534 1535 1537